Weather History for St. Petersburg, FL

Change the Weather History Date:

Saturday, May 31, 2014

  Actual Average Record
Temperature  
Mean Temperature 82 °F -  
Max Temperature 91 °F 88 °F 95 °F (1953)
Min Temperature 75 °F 72 °F 64 °F (1984)
Cooling Degree Days 18    
Growing Degree Days 32 (Base 50)    
Moisture  
Dew Point 71 °F    
Average Humidity 72    
Maximum Humidity 87    
Minimum Humidity 52    
Precipitation  
Precipitation 0.00 in - - ()
Sea Level Pressure  
Sea Level Pressure 29.99 in    
Wind  
Wind Speed 8 mph (SE)    
Max Wind Speed 21 mph    
Max Gust Speed 29 mph    
Visibility 10 miles    
Events Thunderstorm    
Averages and records for this station are not official NWS values.
T = Trace of Precipitation, MM = Missing Value Source: NWS Daily Summary

Daily Weather History Graph

Daily Weather History Graph

Search for Another Location

Airport:

Trip Planner

Search our weather history database for the weather conditions in past years. The results will help you decide how hot, cold, wet, or windy it might be!

Date:

Astronomy

May. 31, 2014 Rise Set
Actual Time 6:35 AM EDT 8:21 PM EDT
Civil Twilight 6:08 AM EDT 8:47 PM EDT
Nautical Twilight 5:37 AM EDT 9:19 PM EDT
Astronomical Twilight 5:04 AM EDT 9:52 PM EDT
Moon 9:04 AM EDT (5/31) 10:47 PM EDT (5/31)
Length of Visible Light 14h 39m
Length of Day
13h 46m
Waxing Crescent, 8% of the Moon is Illuminated
May 31
Waxing Crescent
Jun 5
First Quarter
Jun 13
Full
Jun 19
Last Quarter
Jun 27
New

Hourly Weather History & Observations

Time (EDT) Temp. Heat Index Dew Point Humidity Pressure Visibility Wind Dir Wind Speed Gust Speed Precip Events Conditions
12:53 AM 75.9 °F - 70.0 °F 82% 30.01 in 10.0 mi SE 9.2 mph - N/A   Clear
1:53 AM 75.9 °F - 70.0 °F 82% 30.00 in 10.0 mi SE 9.2 mph - N/A   Clear
2:53 AM 75.0 °F - 70.0 °F 84% 30.00 in 10.0 mi ESE 6.9 mph - N/A   Clear
3:53 AM 75.9 °F - 70.0 °F 82% 30.00 in 10.0 mi ESE 5.8 mph - N/A   Clear
4:53 AM 77.0 °F - 70.0 °F 79% 30.00 in 10.0 mi ESE 8.1 mph - N/A   Clear
5:53 AM 75.9 °F - 70.0 °F 82% 30.00 in 10.0 mi SE 6.9 mph - N/A   Clear
6:53 AM 75.9 °F - 72.0 °F 87% 30.01 in 10.0 mi SSE 6.9 mph - N/A   Clear
7:53 AM 77.0 °F - 72.0 °F 84% 30.01 in 10.0 mi SE 6.9 mph - N/A   Clear
8:53 AM 78.1 °F - 73.0 °F 84% 30.02 in 10.0 mi SSE 6.9 mph - N/A   Clear
9:53 AM 79.0 °F - 73.0 °F 82% 30.03 in 10.0 mi South 6.9 mph - N/A   Clear
11:53 AM 82.0 °F 87.4 °F 73.0 °F 74% 30.03 in 10.0 mi SE 5.8 mph - N/A   Clear
12:53 PM 84.9 °F 91.4 °F 73.0 °F 67% 30.03 in 10.0 mi SE 4.6 mph - N/A   Clear
1:53 PM 86.0 °F 93.0 °F 73.0 °F 65% 30.01 in 10.0 mi Calm Calm - N/A   Clear
2:53 PM 89.1 °F 94.1 °F 70.0 °F 53% 29.98 in 10.0 mi Calm Calm - N/A   Clear
3:53 PM 90.0 °F 95.4 °F 70.0 °F 52% 29.97 in 10.0 mi ENE 4.6 mph - N/A   Clear
4:37 PM 89.1 °F 96.0 °F 72.0 °F 57% 29.95 in 10.0 mi NE 8.1 mph - N/A Thunderstorm Clear
4:53 PM 88.0 °F 94.7 °F 72.0 °F 59% 29.95 in 10.0 mi ENE 6.9 mph - N/A Thunderstorm Thunderstorm
5:10 PM 82.9 °F 85.8 °F 68.0 °F 60% 29.95 in 10.0 mi SE 20.7 mph 28.8 mph N/A   Partly Cloudy
5:19 PM 84.0 °F 86.3 °F 66.0 °F 55% 29.95 in 10.0 mi ESE 18.4 mph - N/A   Partly Cloudy
5:53 PM 84.9 °F 90.7 °F 72.0 °F 65% 29.96 in 10.0 mi East 15.0 mph - N/A Thunderstorm Partly Cloudy
6:17 PM 82.9 °F 87.5 °F 71.1 °F 67% 29.97 in 10.0 mi East 13.8 mph - N/A Thunderstorm Thunderstorm
6:51 PM 80.6 °F 84.6 °F 71.6 °F 74% 29.98 in 10.0 mi South 17.3 mph - N/A Thunderstorm Scattered Clouds
6:53 PM 80.1 °F 83.8 °F 72.0 °F 76% 29.99 in 10.0 mi SSW 16.1 mph - N/A   Scattered Clouds
8:53 PM 81.0 °F 85.2 °F 72.0 °F 74% 29.97 in 10.0 mi South 11.5 mph - N/A   Clear
9:53 PM 80.1 °F 83.8 °F 72.0 °F 76% 30.01 in 10.0 mi ESE 5.8 mph - N/A   Clear
10:53 PM 80.1 °F 83.8 °F 72.0 °F 76% 30.03 in 10.0 mi East 9.2 mph - N/A   Clear
11:53 PM 80.1 °F 83.6 °F 71.1 °F 74% 30.03 in 10.0 mi ESE 10.4 mph - N/A   Clear